Location: Bosmont
(49.7318°N, 3.8587°E)
Time: 23:37:32
(UTC+00:00)

Gblst 52 Del rocket - Pass Details

Date: 08 February 2023
Orbit: 805 x 1364 km, 51.5° (Epoch: 21 March)

Event Time Altitude Azimuth Distance (km) Brightness Sun altitude
Rises 18:00:27 0° 266° (W) 3,444 9.5 -11.6°
Reaches altitude 10° 18:03:02 10° 268° (W) 2,459 8.1 -12.0°
Maximum altitude 18:08:41 75° 354° (N) 841 4.2 -12.9°
Enters shadow 18:12:38 19° 78° (ENE) 1,820 5.3 -13.5°
